Location: Newark
(50.0306°N, 2.3272°E)
Time: 04:35:37
(UTC+00:00)

A-11 Canister half - Pass Details

Date: 14 December 2019
Orbit: 1525 x 1684 km, 47.3° (Epoch: 28 January)

Event Time Altitude Azimuth Distance (km) Brightness Sun altitude
Rises 11:51:28 0° 289° (WNW) 4,935 11.5 16.7°
Reaches altitude 10° 11:55:17 10° 279° (W) 3,932 11.1 16.7°
Maximum altitude 12:03:07 27° 227° (SW) 2,776 11.3 16.7°
Drops below altitude 10° 12:10:49 10° 174° (S) 3,835 13.2 16.5°
Sets 12:14:30 0° 163° (SSE) 4,793 12.8 16.5°
